This demonstration page uses our WeatherBlox Daily Observations layout. Learn more.

Left ArrowRight Arrow

39.08367, -84.50855

Hourly Observations for April 4, 2017

Temp ( °F °C ) Dew Point ( °F °C ) Humidity (%) Winds ( mph kmh ) Pressure ( in mb ) Visibility ( mi km ) Precip ( " mm )
12:53 am 00:53 Partly Cloudy 57 13.9 56 13.3 96 96 S 9 15 29.46 998 10 16 N/A
1:53 am 01:53 Mostly Cloudy 59 15 56 13.3 90 90 SW 9 15 29.47 998 10 16 N/A
2:53 am 02:53 Mostly Cloudy 59 15 57 13.9 93 93 SW 10 17 29.47 998 10 16 0.01 0.25
3:53 am 03:53 Cloudy 60 15.6 57 13.9 90 90 SW 12 19 29.48 998 10 16 N/A
4:53 am 04:53 Cloudy 60 15.6 57 13.9 90 90 SW 12 19 29.51 999 10 16 N/A
5:39 am 05:39 Cloudy with Light Rain 60 15.6 56 13.3 86 86 SW 14 22 29.53 1000 10 16 N/A
5:49 am 05:49 Cloudy 61 16 55 13 83 83 SW 12 19 29.53 1000 10 16 N/A
5:53 am 05:53 Cloudy 60 15.6 56 13.3 86 86 SW 13 20 29.53 1000 10 16 N/A
6:37 am 06:37 Cloudy 59 15 55 12.8 87 87 WSW 12 19 29.56 1001 10 16 N/A
6:53 am 06:53 Cloudy 59 15 55 12.8 87 87 WSW 14 22 29.57 1001 10 16 N/A
7:14 am 07:14 Cloudy 59 15 54 12 82 82 WSW 18 30 29.59 1002 10 16 N/A
7:53 am 07:53 Cloudy 59 15 53 11.7 81 81 WSW 15 24 29.60 1003 10 16 N/A
8:24 am 08:24 Cloudy 57 14 54 12 88 88 WSW 12 19 29.65 1004 10 16 N/A
8:53 am 08:53 Cloudy 58 14.4 54 12.2 87 87 WSW 12 19 29.65 1004 10 16 N/A
9:53 am 09:53 Cloudy 59 15 52 11.1 78 78 WSW 13 20 29.67 1005 10 16 N/A
10:53 am 10:53 Cloudy 59 15 53 11.7 81 81 WSW 17 28 29.71 1006 10 16 N/A
11:53 am 11:53 Cloudy 61 16.1 52 11.1 72 72 W 16 26 29.73 1007 10 16 N/A
12:53 pm 12:53 Cloudy 61 16.1 51 10.6 70 70 WSW 18 30 29.76 1008 10 16 N/A
1:53 pm 13:53 Cloudy 60 15.6 50 10 70 70 W 20 31 29.78 1008 10 16 N/A
2:53 pm 14:53 Cloudy 63 17.2 51 10.6 65 65 W 16 26 29.78 1009 10 16 N/A
3:53 pm 15:53 Mostly Cloudy 65 18.3 52 11.1 63 63 W 13 20 29.77 1008 10 16 N/A
4:53 pm 16:53 Mostly Cloudy 67 19.4 51 10.6 57 57 SW 12 19 29.77 1008 10 16 N/A
5:53 pm 17:53 Mostly Cloudy 66 18.9 50 10 56 56 WSW 14 22 29.79 1009 10 16 N/A
6:53 pm 18:53 Partly Cloudy 67 19.4 50 10 55 55 NNW 9 15 29.81 1010 10 16 N/A
7:53 pm 19:53 Mostly Sunny 62 16.7 49 9.4 62 62 N 6 9 29.84 1011 10 16 N/A
8:53 pm 20:53 Mostly Cloudy 61 16.1 46 7.8 58 58 NNW 3 6 29.88 1012 10 16 N/A
9:53 pm 21:53 Clear 56 13.3 49 9.4 77 77 NNE 5 7 29.91 1013 10 16 N/A
10:53 pm 22:53 Clear 54 12.2 49 9.4 83 83 N 7 11 29.91 1013 10 16 N/A
11:53 pm 23:53 Clear 53 11.7 48 8.9 83 83 NNE 8 13 29.92 1013 10 16 N/A

Powered by AerisWeather